Regional Weather Roundup
Issued by NWS

Home | Current Version | Previous Version | Text Only | Print | Product List | Glossary Off
Versions: 1 2 3 4 5 6 7 8 9 10 11 12 13 14 15 16 17 18 19 20 21 22 23 24 25 26 27 28 29 30 31 32 33 34 35 36 37 38 39 40 41 42 43 44 45 46 47 48 49 50

506
ASUS44 KJAN 202010
RWRMS

MISSISSIPPI HOURLY WEATHER ROUNDUP
NATIONAL WEATHER SERVICE JACKSON MS
300 PM CDT MON OCT 20 2014

NOTE: "FAIR: INDICATES FEW OR NO CLOUDS BELOW 12,000 FEET WITH NO
SIGNIFICANT WEATHER AND/OR OBSTRUCTIONS TO VISIBILITY.

MSZ001>002-007>008-010>013-018>021-025>028-034>036-202100-
NORTHWEST MISSISSIPPI

CITY           SKY/WX    TMP DP  RH WIND       PRES   REMARKS
CLARKSDALE     FAIR      72  50  46 NW5       30.05S
CLEVELAND      FAIR      72  52  48 SW3       30.03F
GREENWOOD      SUNNY     73  48  41 CALM      30.03F
GREENVILLE     SUNNY     73  47  39 CALM      30.03F
GRENADA          N/A    N/A N/A N/A MISG        N/A
OLIVE BRANCH   MOSUNNY   70  50  49 SW5       30.03F
OXFORD         FAIR      68  48  49 SW3       30.05F
TUNICA         CLEAR     70  50  49 W6        30.04F
$$

MSZ003>006-009-014>017-022>024-029>033-037>039-202100-
NORTHEAST MISSISSIPPI

CITY           SKY/WX    TMP DP  RH WIND       PRES   REMARKS
COLUMBUS AFB   MOSUNNY   73  46  38 W3        30.03S
CORINTH        FAIR      68  48  49 W6        30.02
GOLDN TRIANGLE SUNNY     73  48  40 NW5       30.03F
STARKVILLE     FAIR      72  46  40 CALM      30.02
TUPELO         MOSUNNY   72  48  42 VRB5      30.02F
$$

MSZ040-058-202100-
CENTRAL MISSISSIPPI

CITY           SKY/WX    TMP DP  RH WIND       PRES   REMARKS
JACKSON INTL   MOSUNNY   75  50  41 N5        30.03F
JACKSON HAWKNS SUNNY     75  46  35 VRB3      30.03F
MERIDIAN KEY   MOSUNNY   76  48  37 N6        30.01F
MERIDIAN NAS   PTSUNNY   74  47  38 W5        30.02F
RAYMOND        FAIR      77  72  83 NE3       30.03F
VICKSBURG      SUNNY     74  48  39 N3        30.04F
$$

MSZ059>079-202100-
SOUTH MISSISSIPPI

CITY           SKY/WX    TMP DP  RH WIND       PRES   REMARKS
BROOKHAVEN     FAIR      73  45  35 CALM      30.05F
COLUMBIA         N/A    N/A N/A N/A MISG        N/A
HATTIESBURG    MOSUNNY   76  49  38 CALM      30.02F
MCCOMB         MOSUNNY   74  48  39 N6        30.02F
NATCHEZ        MOSUNNY   73  48  40 N5        30.04F
PINE BELT      MOSUNNY   75  48  38 E5        30.04F
$$

MSZ080>082-202100-
COASTAL MISSISSIPPI

CITY           SKY/WX    TMP DP  RH WIND       PRES   REMARKS
BAY ST LOUIS   SUNNY     79  45  29 VRB3      30.00F
BILOXI         SUNNY     79  51  37 SW8       29.99F
PASCAGOULA     MOSUNNY   81  51  35 VRB5      30.00F
GULFPORT       SUNNY     79  47  32 CALM      29.99F
$$



USA.gov is the U.S. government's official web portal to all federal, state and local government web resources and services.